TimePDT,TemperatureF,Dew PointF,Humidity,Sea Level PressureIn,VisibilityMPH,Wind Direction,Wind SpeedMPH,Gust SpeedMPH,PrecipitationIn,Events,Conditions,WindDirDegrees,DateUTC
12:56 AM,48.9,46.9,93,30.02,10.0,Variable,4.6,-,0.10,Rain,Light Rain,0,2012-10-13 07:56:00
1:34 AM,48.2,46.4,93,30.07,10.0,Variable,3.5,-,0.07,Rain,Rain,0,2012-10-13 08:34:00
1:56 AM,48.9,48.0,97,30.05,10.0,Calm,Calm,-,0.10,Rain,Light Rain,0,2012-10-13 08:56:00
2:03 AM,48.2,48.2,100,30.08,10.0,Variable,5.8,-,0.00,Rain,Light Rain,0,2012-10-13 09:03:00
2:56 AM,48.9,46.9,93,30.07,10.0,Variable,4.6,-,0.01,,Overcast,0,2012-10-13 09:56:00
3:45 AM,48.2,46.4,93,30.10,10.0,Calm,Calm,-,N/A,,Overcast,0,2012-10-13 10:45:00
3:56 AM,48.9,46.9,93,30.09,10.0,Variable,4.6,-,N/A,,Overcast,0,2012-10-13 10:56:00
4:05 AM,48.2,46.4,93,30.10,10.0,Calm,Calm,-,N/A,,Overcast,0,2012-10-13 11:05:00
4:56 AM,48.9,46.9,93,30.13,10.0,Calm,Calm,-,0.00,,Overcast,0,2012-10-13 11:56:00
5:56 AM,48.0,46.0,93,30.14,10.0,Calm,Calm,-,N/A,,Overcast,0,2012-10-13 12:56:00
6:56 AM,48.0,46.0,93,30.17,10.0,Calm,Calm,-,N/A,,Overcast,0,2012-10-13 13:56:00
7:56 AM,48.9,46.0,90,30.19,10.0,Calm,Calm,-,N/A,,Overcast,0,2012-10-13 14:56:00
8:56 AM,48.9,46.0,90,30.21,10.0,Calm,Calm,-,N/A,,Overcast,0,2012-10-13 15:56:00
9:56 AM,51.1,46.9,86,30.22,10.0,Calm,Calm,-,N/A,,Overcast,0,2012-10-13 16:56:00
10:56 AM,52.0,46.9,83,30.24,10.0,Variable,4.6,-,N/A,,Overcast,0,2012-10-13 17:56:00
11:56 AM,55.0,46.9,74,30.24,10.0,Variable,3.5,-,N/A,,Overcast,0,2012-10-13 18:56:00
12:44 PM,55.4,46.4,72,30.24,10.0,Calm,Calm,-,N/A,,Overcast,0,2012-10-13 19:44:00
12:56 PM,55.4,46.4,72,30.24,10.0,Calm,Calm,-,N/A,,Overcast,0,2012-10-13 19:56:00
1:32 PM,55.4,46.4,72,30.24,10.0,Variable,3.5,-,N/A,,Mostly Cloudy,0,2012-10-13 20:32:00
1:56 PM,54.0,48.0,80,30.24,10.0,Calm,Calm,-,0.00,Rain,Light Rain,0,2012-10-13 20:56:00
2:56 PM,57.0,46.0,67,30.22,10.0,Calm,Calm,-,0.00,,Overcast,0,2012-10-13 21:56:00
3:56 PM,57.0,46.0,67,30.23,10.0,Variable,3.5,-,0.00,Rain,Light Rain,0,2012-10-13 22:56:00
4:43 PM,55.4,46.4,72,30.25,10.0,Calm,Calm,-,0.00,,Overcast,0,2012-10-13 23:43:00
4:56 PM,55.9,46.9,72,30.25,10.0,Calm,Calm,-,0.00,Rain,Light Rain,0,2012-10-13 23:56:00
5:56 PM,52.0,50.0,93,30.27,10.0,Calm,Calm,-,0.02,Rain,Light Rain,0,2012-10-14 00:56:00
6:56 PM,51.1,50.0,96,30.26,10.0,Calm,Calm,-,0.00,,Overcast,0,2012-10-14 01:56:00
7:17 PM,51.8,50.0,94,30.26,10.0,Calm,Calm,-,N/A,,Overcast,0,2012-10-14 02:17:00
7:56 PM,51.1,50.0,96,30.25,10.0,Calm,Calm,-,0.00,,Mostly Cloudy,0,2012-10-14 02:56:00
8:56 PM,50.0,48.9,96,30.25,10.0,Calm,Calm,-,N/A,,Overcast,0,2012-10-14 03:56:00
9:56 PM,48.9,48.0,97,30.25,10.0,Calm,Calm,-,N/A,,Overcast,0,2012-10-14 04:56:00
10:56 PM,46.0,45.0,96,30.26,10.0,Calm,Calm,-,N/A,,Scattered Clouds,0,2012-10-14 05:56:00
11:56 PM,45.0,44.1,97,30.25,10.0,Calm,Calm,-,N/A,,Mostly Cloudy,0,2012-10-14 06:56:00